Time,TemperatureF,DewpointF,PressureIn,WindDirection,WindDirectionDegrees,WindSpeedMPH,WindSpeedGustMPH,Humidity,HourlyPrecipIn,Conditions,Clouds,dailyrainin,SoftwareType,DateUTC
2013-08-19 00:01:00,70.2,57.4,29.67,SSE,158,0.0,0.0,64,0.00,,,0.00,WUHU216HW,2013-08-19 05:01:00,
2013-08-19 00:06:00,70.0,57.7,29.67,SSE,158,0.0,0.0,65,0.00,,,0.00,WUHU216HW,2013-08-19 05:06:00,
2013-08-19 00:11:00,69.8,57.5,29.68,SSE,158,0.0,0.0,65,0.00,,,0.00,WUHU216HW,2013-08-19 05:11:00,
2013-08-19 00:16:00,69.7,57.3,29.67,SSE,158,0.0,0.0,65,0.00,,,0.00,WUHU216HW,2013-08-19 05:16:00,
2013-08-19 00:21:00,69.5,57.2,29.67,SSE,158,0.0,0.0,65,0.00,,,0.00,WUHU216HW,2013-08-19 05:21:00,
2013-08-19 00:26:00,69.5,57.2,29.67,SSE,158,0.0,0.0,65,0.00,,,0.00,WUHU216HW,2013-08-19 05:26:00,
2013-08-19 00:31:00,69.1,56.8,29.67,SSE,158,0.0,0.0,65,0.00,,,0.00,WUHU216HW,2013-08-19 05:31:00,
2013-08-19 00:36:00,69.1,56.8,29.67,SSE,158,0.0,0.0,65,0.00,,,0.00,WUHU216HW,2013-08-19 05:36:00,
2013-08-19 00:41:00,68.9,56.7,29.67,SSE,158,0.0,0.0,65,0.00,,,0.00,WUHU216HW,2013-08-19 05:41:00,
2013-08-19 00:46:00,68.8,56.9,29.67,SSE,158,0.0,0.0,66,0.00,,,0.00,WUHU216HW,2013-08-19 05:46:00,
2013-08-19 00:51:00,68.8,56.9,29.67,SSE,158,0.0,0.0,66,0.00,,,0.00,WUHU216HW,2013-08-19 05:51:00,
2013-08-19 00:56:00,68.8,56.9,29.67,SSE,158,0.0,0.0,66,0.00,,,0.00,WUHU216HW,2013-08-19 05:56:00,
2013-08-19 01:01:00,68.6,57.2,29.67,SSE,158,0.0,0.0,67,0.00,,,0.00,WUHU216HW,2013-08-19 06:01:00,
2013-08-19 01:06:00,68.4,57.0,29.67,SSE,158,0.0,0.0,67,0.00,,,0.00,WUHU216HW,2013-08-19 06:06:00,
2013-08-19 01:11:00,68.4,57.0,29.67,SSE,158,0.0,0.0,67,0.00,,,0.00,WUHU216HW,2013-08-19 06:11:00,
2013-08-19 01:16:00,68.2,56.8,29.66,SSE,158,0.0,0.0,67,0.00,,,0.00,WUHU216HW,2013-08-19 06:16:00,
2013-08-19 01:21:00,68.0,56.7,29.66,SSE,158,0.0,0.0,67,0.00,,,0.00,WUHU216HW,2013-08-19 06:21:00,
2013-08-19 01:26:00,68.0,57.1,29.67,SSE,158,0.0,0.0,68,0.00,,,0.00,WUHU216HW,2013-08-19 06:26:00,
2013-08-19 01:31:00,68.0,57.1,29.67,SSE,158,0.0,0.0,68,0.00,,,0.00,WUHU216HW,2013-08-19 06:31:00,
2013-08-19 01:36:00,67.9,56.9,29.66,SSE,158,0.0,0.0,68,0.00,,,0.00,WUHU216HW,2013-08-19 06:36:00,
2013-08-19 01:41:00,67.7,56.7,29.66,SSE,158,0.0,0.0,68,0.00,,,0.00,WUHU216HW,2013-08-19 06:41:00,
2013-08-19 01:46:00,67.7,56.7,29.66,SSE,158,0.0,0.0,68,0.00,,,0.00,WUHU216HW,2013-08-19 06:46:00,
2013-08-19 01:51:00,67.7,56.7,29.66,SSE,158,0.0,0.0,68,0.00,,,0.00,WUHU216HW,2013-08-19 06:51:00,
2013-08-19 01:56:00,67.5,56.6,29.66,SSE,158,0.0,0.0,68,0.00,,,0.00,WUHU216HW,2013-08-19 06:56:00,
2013-08-19 02:01:00,67.3,56.8,29.66,SSE,158,0.0,0.0,69,0.00,,,0.00,WUHU216HW,2013-08-19 07:01:00,
2013-08-19 02:06:00,67.3,56.8,29.66,SSE,158,0.0,0.0,69,0.00,,,0.00,WUHU216HW,2013-08-19 07:06:00,
2013-08-19 02:11:00,67.1,56.6,29.66,SSE,158,0.0,0.0,69,0.00,,,0.00,WUHU216HW,2013-08-19 07:11:00,
2013-08-19 02:16:00,67.0,56.4,29.66,SSE,158,0.0,0.0,69,0.00,,,0.00,WUHU216HW,2013-08-19 07:16:00,
2013-08-19 02:21:00,67.0,56.9,29.66,SSE,158,0.0,0.0,70,0.00,,,0.00,WUHU216HW,2013-08-19 07:21:00,
2013-08-19 02:26:00,66.8,56.7,29.66,SSE,158,0.0,0.0,70,0.00,,,0.00,WUHU216HW,2013-08-19 07:26:00,
2013-08-19 02:31:00,66.8,56.7,29.66,SSE,158,0.0,0.0,70,0.00,,,0.00,WUHU216HW,2013-08-19 07:31:00,
2013-08-19 02:36:00,66.6,56.5,29.66,SSE,158,0.0,0.0,70,0.00,,,0.00,WUHU216HW,2013-08-19 07:36:00,
2013-08-19 02:41:00,66.6,56.5,29.66,SSE,158,0.0,0.0,70,0.00,,,0.00,WUHU216HW,2013-08-19 07:41:00,
2013-08-19 02:46:00,66.6,56.5,29.66,SSE,158,0.0,0.0,70,0.00,,,0.00,WUHU216HW,2013-08-19 07:46:00,
2013-08-19 02:51:00,66.6,56.5,29.66,SSE,158,0.0,0.0,70,0.00,,,0.00,WUHU216HW,2013-08-19 07:51:00,
2013-08-19 02:56:00,66.4,56.3,29.66,SSE,158,0.0,0.0,70,0.00,,,0.00,WUHU216HW,2013-08-19 07:56:00,
2013-08-19 03:01:00,66.4,56.3,29.66,SSE,158,0.0,0.0,70,0.00,,,0.00,WUHU216HW,2013-08-19 08:01:00,
2013-08-19 03:06:00,66.2,56.2,29.66,SSE,158,0.0,0.0,70,0.00,,,0.00,WUHU216HW,2013-08-19 08:06:00,
2013-08-19 03:11:00,66.1,56.0,29.66,SSE,158,0.0,0.0,70,0.00,,,0.00,WUHU216HW,2013-08-19 08:11:00,
2013-08-19 03:16:00,66.1,56.3,29.66,SSE,158,0.0,0.0,71,0.00,,,0.00,WUHU216HW,2013-08-19 08:16:00,
2013-08-19 03:21:00,65.9,56.3,29.66,SSE,158,0.0,0.0,71,0.00,,,0.00,WUHU216HW,2013-08-19 08:21:00,
2013-08-19 03:26:00,65.9,56.3,29.66,SSE,158,0.0,0.0,71,0.00,,,0.00,WUHU216HW,2013-08-19 08:26:00,
2013-08-19 03:31:00,65.9,56.3,29.66,SSE,158,0.0,0.0,71,0.00,,,0.00,WUHU216HW,2013-08-19 08:31:00,
2013-08-19 03:36:00,65.7,56.1,29.66,SSE,158,0.0,0.0,71,0.00,,,0.00,WUHU216HW,2013-08-19 08:36:00,
2013-08-19 03:41:00,65.5,56.3,29.66,SSE,158,0.0,0.0,72,0.00,,,0.00,WUHU216HW,2013-08-19 08:41:00,
2013-08-19 03:46:00,65.5,56.3,29.66,SSE,158,0.0,0.0,72,0.00,,,0.00,WUHU216HW,2013-08-19 08:46:00,
2013-08-19 03:51:00,65.3,56.1,29.66,SSE,158,0.0,0.0,72,0.00,,,0.00,WUHU216HW,2013-08-19 08:51:00,
2013-08-19 03:56:00,65.3,56.1,29.66,SSE,158,0.0,0.0,72,0.00,,,0.00,WUHU216HW,2013-08-19 08:56:00,
2013-08-19 04:01:00,65.2,55.9,29.66,SSE,158,0.0,0.0,72,0.00,,,0.00,WUHU216HW,2013-08-19 09:01:00,
2013-08-19 04:06:00,65.2,56.3,29.66,SSE,158,0.0,0.0,73,0.00,,,0.00,WUHU216HW,2013-08-19 09:06:00,
2013-08-19 04:11:00,65.2,56.3,29.66,SSE,158,0.0,0.0,73,0.00,,,0.00,WUHU216HW,2013-08-19 09:11:00,
2013-08-19 04:16:00,65.0,56.2,29.66,SSE,158,0.0,0.0,73,0.00,,,0.00,WUHU216HW,2013-08-19 09:16:00,
2013-08-19 04:21:00,65.0,56.2,29.66,SSE,158,0.0,0.0,73,0.00,,,0.00,WUHU216HW,2013-08-19 09:21:00,
2013-08-19 04:26:00,64.8,56.0,29.66,SSE,158,0.0,0.0,73,0.00,,,0.00,WUHU216HW,2013-08-19 09:26:00,
2013-08-19 04:31:00,64.8,56.0,29.66,SSE,158,0.0,0.0,73,0.00,,,0.00,WUHU216HW,2013-08-19 09:31:00,
2013-08-19 04:36:00,64.8,56.0,29.66,SSE,158,0.0,0.0,73,0.00,,,0.00,WUHU216HW,2013-08-19 09:36:00,
2013-08-19 04:41:00,64.6,55.8,29.66,SSE,158,0.0,0.0,73,0.00,,,0.00,WUHU216HW,2013-08-19 09:41:00,
2013-08-19 04:46:00,64.6,56.2,29.66,SSE,158,0.0,0.0,74,0.00,,,0.00,WUHU216HW,2013-08-19 09:46:00,
2013-08-19 04:51:00,64.4,56.0,29.66,SSE,158,0.0,0.0,74,0.00,,,0.00,WUHU216HW,2013-08-19 09:51:00,
2013-08-19 04:56:00,64.4,56.0,29.66,SSE,158,0.0,0.0,74,0.00,,,0.00,WUHU216HW,2013-08-19 09:56:00,
2013-08-19 05:01:00,64.4,56.0,29.66,SSE,158,0.0,0.0,74,0.00,,,0.00,WUHU216HW,2013-08-19 10:01:00,
2013-08-19 05:06:00,64.4,56.0,29.67,SSE,158,0.0,0.0,74,0.00,,,0.00,WUHU216HW,2013-08-19 10:06:00,
2013-08-19 05:11:00,64.3,55.8,29.66,SSE,158,0.0,0.0,74,0.00,,,0.00,WUHU216HW,2013-08-19 10:11:00,
2013-08-19 05:16:00,64.3,55.8,29.66,SSE,158,0.0,0.0,74,0.00,,,0.00,WUHU216HW,2013-08-19 10:16:00,
2013-08-19 05:21:00,64.1,55.6,29.66,SSE,158,0.0,0.0,74,0.00,,,0.00,WUHU216HW,2013-08-19 10:21:00,
2013-08-19 05:26:00,64.1,55.6,29.67,SSE,158,0.0,0.0,74,0.00,,,0.00,WUHU216HW,2013-08-19 10:26:00,
2013-08-19 05:31:00,64.1,56.0,29.67,SSE,158,0.0,0.0,75,0.00,,,0.00,WUHU216HW,2013-08-19 10:31:00,
2013-08-19 05:36:00,64.1,56.0,29.67,SSE,158,0.0,0.0,75,0.00,,,0.00,WUHU216HW,2013-08-19 10:36:00,
2013-08-19 05:41:00,64.1,56.0,29.67,SSE,158,0.0,0.0,75,0.00,,,0.00,WUHU216HW,2013-08-19 10:41:00,
2013-08-19 05:46:00,64.1,56.0,29.67,SSE,158,0.0,0.0,75,0.00,,,0.00,WUHU216HW,2013-08-19 10:46:00,
2013-08-19 05:51:00,64.1,56.0,29.67,SSE,158,0.0,0.0,75,0.00,,,0.00,WUHU216HW,2013-08-19 10:51:00,
2013-08-19 05:56:00,63.9,55.8,29.67,SSE,158,0.0,0.0,75,0.00,,,0.00,WUHU216HW,2013-08-19 10:56:00,
2013-08-19 06:01:00,63.9,56.2,29.67,SSE,158,0.0,0.0,76,0.00,,,0.00,WUHU216HW,2013-08-19 11:01:00,
2013-08-19 06:06:00,63.7,56.0,29.67,SSE,158,0.0,0.0,76,0.00,,,0.00,WUHU216HW,2013-08-19 11:06:00,
2013-08-19 06:11:00,63.7,56.0,29.67,SSE,158,0.0,0.0,76,0.00,,,0.00,WUHU216HW,2013-08-19 11:11:00,
2013-08-19 06:16:00,63.7,56.0,29.68,SSE,158,0.0,0.0,76,0.00,,,0.00,WUHU216HW,2013-08-19 11:16:00,
2013-08-19 06:21:00,63.7,56.0,29.68,SSE,158,0.0,0.0,76,0.00,,,0.00,WUHU216HW,2013-08-19 11:21:00,
2013-08-19 06:26:00,63.7,56.0,29.68,SSE,158,0.0,0.0,76,0.00,,,0.00,WUHU216HW,2013-08-19 11:26:00,
2013-08-19 06:31:00,63.7,56.0,29.67,SSE,158,0.0,0.0,76,0.00,,,0.00,WUHU216HW,2013-08-19 11:31:00,
2013-08-19 06:36:00,63.5,56.2,29.68,SSE,158,0.0,0.0,77,0.00,,,0.00,WUHU216HW,2013-08-19 11:36:00,
2013-08-19 06:40:00,63.7,57.4,29.68,SSE,158,0.0,0.0,80,0.00,,,0.00,WUHU216HW,2013-08-19 11:40:00,
2013-08-19 06:45:00,64.3,58.0,29.68,SSE,158,0.0,0.0,80,0.00,,,0.00,WUHU216HW,2013-08-19 11:45:00,
2013-08-19 06:50:00,64.3,57.2,29.68,SSE,158,0.0,0.0,78,0.00,,,0.00,WUHU216HW,2013-08-19 11:50:00,
2013-08-19 06:55:00,64.3,56.9,29.68,SSE,158,0.0,0.0,77,0.00,,,0.00,WUHU216HW,2013-08-19 11:55:00,
2013-08-19 07:00:00,64.4,57.4,29.69,SSE,158,0.0,0.0,78,0.00,,,0.00,WUHU216HW,2013-08-19 12:00:00,
2013-08-19 07:05:00,64.6,57.3,29.69,SSE,158,0.0,0.0,77,0.00,,,0.00,WUHU216HW,2013-08-19 12:05:00,
2013-08-19 07:10:00,64.8,57.4,29.69,SE,135,0.0,0.0,77,0.00,,,0.00,WUHU216HW,2013-08-19 12:10:00,
2013-08-19 07:15:00,65.0,57.6,29.69,SE,135,0.7,0.7,77,0.00,,,0.00,WUHU216HW,2013-08-19 12:15:00,
2013-08-19 07:20:00,65.0,57.6,29.69,East,90,0.0,0.7,77,0.00,,,0.00,WUHU216HW,2013-08-19 12:20:00,
2013-08-19 07:25:00,65.0,57.6,29.69,ESE,113,0.2,0.7,77,0.00,,,0.00,WUHU216HW,2013-08-19 12:25:00,
2013-08-19 07:30:00,65.2,57.8,29.69,ESE,113,0.4,0.4,77,0.00,,,0.00,WUHU216HW,2013-08-19 12:30:00,
2013-08-19 07:35:00,65.5,58.9,29.69,SE,135,0.4,1.1,79,0.00,,,0.00,WUHU216HW,2013-08-19 12:35:00,
2013-08-19 07:40:00,66.2,59.6,29.69,SE,135,0.7,1.6,79,0.00,,,0.00,WUHU216HW,2013-08-19 12:40:00,
2013-08-19 07:45:00,66.8,60.1,29.68,SE,135,1.3,1.6,79,0.00,,,0.00,WUHU216HW,2013-08-19 12:45:00,
2013-08-19 07:50:00,67.3,59.9,29.69,ENE,68,0.4,1.6,77,0.00,,,0.00,WUHU216HW,2013-08-19 12:50:00,
2013-08-19 07:55:00,67.3,59.9,29.68,SE,135,0.4,1.6,77,0.00,,,0.00,WUHU216HW,2013-08-19 12:55:00,
2013-08-19 08:00:00,67.7,59.9,29.68,SE,135,1.1,1.1,76,0.00,,,0.00,WUHU216HW,2013-08-19 13:00:00,
2013-08-19 08:05:00,68.0,60.2,29.69,SSE,158,0.4,1.1,76,0.00,,,0.00,WUHU216HW,2013-08-19 13:05:00,
2013-08-19 08:10:00,68.6,60.8,29.69,SE,135,1.1,1.1,76,0.00,,,0.00,WUHU216HW,2013-08-19 13:10:00,
2013-08-19 08:15:00,69.1,60.9,29.69,ESE,113,0.9,1.1,75,0.00,,,0.00,WUHU216HW,2013-08-19 13:15:00,
2013-08-19 08:20:00,69.5,60.8,29.69,ESE,113,0.9,1.1,74,0.00,,,0.00,WUHU216HW,2013-08-19 13:20:00,
2013-08-19 08:25:00,69.8,61.1,29.69,ESE,113,0.2,1.1,74,0.00,,,0.00,WUHU216HW,2013-08-19 13:25:00,
2013-08-19 08:30:00,70.2,61.5,29.69,South,180,0.4,1.1,74,0.00,,,0.00,WUHU216HW,2013-08-19 13:30:00,
2013-08-19 08:35:00,70.7,62.0,29.69,SE,135,0.0,1.3,74,0.00,,,0.00,WUHU216HW,2013-08-19 13:35:00,
2013-08-19 08:40:00,71.1,62.0,29.69,WSW,248,0.2,1.3,73,0.00,,,0.00,WUHU216HW,2013-08-19 13:40:00,
2013-08-19 08:45:00,71.6,62.6,29.69,SE,135,0.4,1.3,73,0.00,,,0.00,WUHU216HW,2013-08-19 13:45:00,
2013-08-19 08:50:00,72.2,63.1,29.69,SSE,158,1.1,1.8,73,0.00,,,0.00,WUHU216HW,2013-08-19 13:50:00,
2013-08-19 08:55:00,72.7,62.8,29.69,SE,135,1.3,2.5,71,0.00,,,0.00,WUHU216HW,2013-08-19 13:55:00,
2013-08-19 09:00:00,73.3,63.4,29.69,SSE,158,1.1,3.1,71,0.00,,,0.00,WUHU216HW,2013-08-19 14:00:00,
2013-08-19 09:05:00,73.8,63.6,29.69,ESE,113,0.0,3.1,70,0.00,,,0.00,WUHU216HW,2013-08-19 14:05:00,
2013-08-19 09:10:00,74.2,63.4,29.69,South,180,0.0,2.2,69,0.00,,,0.00,WUHU216HW,2013-08-19 14:10:00,
2013-08-19 09:15:00,74.5,64.2,29.69,South,180,1.3,2.0,70,0.00,,,0.00,WUHU216HW,2013-08-19 14:15:00,
2013-08-19 09:19:00,74.9,64.1,29.69,SE,135,0.9,0.9,69,0.00,,,0.00,WUHU216HW,2013-08-19 14:19:00,
2013-08-19 09:20:00,74.9,64.1,29.69,SE,135,0.9,1.8,69,0.00,,,0.00,WUHU216HW,2013-08-19 14:20:00,
2013-08-19 09:25:00,74.9,64.1,29.69,SE,135,0.9,1.1,69,0.00,,,0.00,WUHU216HW,2013-08-19 14:25:00,
2013-08-19 09:49:00,77.4,64.7,29.69,WNW,293,1.8,1.8,65,0.00,,,0.00,WUHU216HW,2013-08-19 14:49:00,
2013-08-19 09:54:00,77.2,64.5,29.69,WSW,248,2.5,2.5,65,0.00,,,0.00,WUHU216HW,2013-08-19 14:54:00,
2013-08-19 09:59:00,77.2,64.5,29.69,SW,225,0.0,2.5,65,0.00,,,0.00,WUHU216HW,2013-08-19 14:59:00,
2013-08-19 10:04:00,77.4,64.7,29.69,West,270,1.8,3.1,65,0.00,,,0.00,WUHU216HW,2013-08-19 15:04:00,
2013-08-19 10:09:00,77.9,65.6,29.69,WSW,248,1.3,3.1,66,0.00,,,0.00,WUHU216HW,2013-08-19 15:09:00,
2013-08-19 10:14:00,78.5,65.7,29.69,WSW,248,0.7,2.5,65,0.00,,,0.00,WUHU216HW,2013-08-19 15:14:00,
2013-08-19 10:19:00,78.8,65.6,29.69,South,180,0.7,2.5,64,0.00,,,0.00,WUHU216HW,2013-08-19 15:19:00,
2013-08-19 10:24:00,79.4,65.7,29.68,SE,135,1.6,1.8,63,0.00,,,0.00,WUHU216HW,2013-08-19 15:24:00,
2013-08-19 10:29:00,79.7,65.6,29.69,WSW,248,1.1,3.6,62,0.00,,,0.00,WUHU216HW,2013-08-19 15:29:00,
2013-08-19 10:34:00,80.1,65.9,29.69,SW,225,1.8,3.6,62,0.00,,,0.00,WUHU216HW,2013-08-19 15:34:00,
2013-08-19 10:39:00,80.5,65.3,29.69,NNW,338,1.3,3.1,60,0.00,,,0.00,WUHU216HW,2013-08-19 15:39:00,
2013-08-19 10:44:00,80.6,66.0,29.68,SSE,158,3.1,3.1,61,0.00,,,0.00,WUHU216HW,2013-08-19 15:44:00,
2013-08-19 10:49:00,80.8,65.2,29.69,SSW,203,1.8,3.1,59,0.00,,,0.00,WUHU216HW,2013-08-19 15:49:00,
2013-08-19 10:54:00,81.2,65.5,29.68,SW,225,2.2,4.0,59,0.00,,,0.00,WUHU216HW,2013-08-19 15:54:00,
2013-08-19 10:59:00,81.4,65.6,29.69,North,0,0.7,4.0,59,0.00,,,0.00,WUHU216HW,2013-08-19 15:59:00,
2013-08-19 11:04:00,81.2,65.0,29.68,SSW,203,1.1,2.0,58,0.00,,,0.00,WUHU216HW,2013-08-19 16:04:00,
2013-08-19 11:09:00,81.4,64.6,29.68,SSE,158,1.8,3.8,57,0.00,,,0.00,WUHU216HW,2013-08-19 16:09:00,
2013-08-19 11:14:00,83.5,65.1,29.68,West,270,3.1,3.8,54,0.00,,,0.00,WUHU216HW,2013-08-19 16:14:00,
2013-08-19 11:19:00,83.9,66.0,29.68,NNW,338,0.0,3.4,55,0.00,,,0.00,WUHU216HW,2013-08-19 16:19:00,
2013-08-19 11:24:00,83.7,65.8,29.68,WSW,248,1.8,3.4,55,0.00,,,0.00,WUHU216HW,2013-08-19 16:24:00,
2013-08-19 11:29:00,83.0,64.5,29.68,North,0,0.7,2.7,54,0.00,,,0.00,WUHU216HW,2013-08-19 16:29:00,
2013-08-19 11:34:00,82.4,64.5,29.68,NNW,338,1.1,2.5,55,0.00,,,0.00,WUHU216HW,2013-08-19 16:34:00,
2013-08-19 11:39:00,84.8,65.8,29.68,WSW,248,1.8,2.5,53,0.00,,,0.00,WUHU216HW,2013-08-19 16:39:00,
2013-08-19 11:44:00,85.5,66.4,29.68,WSW,248,1.8,3.1,53,0.00,,,0.00,WUHU216HW,2013-08-19 16:44:00,
2013-08-19 11:49:00,85.5,66.4,29.68,SSE,158,2.5,3.1,53,0.00,,,0.00,WUHU216HW,2013-08-19 16:49:00,
2013-08-19 11:54:00,85.1,65.1,29.67,ESE,113,0.7,2.5,51,0.00,,,0.00,WUHU216HW,2013-08-19 16:54:00,
2013-08-19 11:59:00,85.7,65.5,29.67,SW,225,3.4,3.4,51,0.00,,,0.00,WUHU216HW,2013-08-19 16:59:00,
2013-08-19 12:04:00,86.8,66.5,29.67,WSW,248,2.5,3.4,51,0.00,,,0.00,WUHU216HW,2013-08-19 17:04:00,
2013-08-19 12:09:00,85.9,66.3,29.67,SSE,158,0.9,2.9,52,0.00,,,0.00,WUHU216HW,2013-08-19 17:09:00,
2013-08-19 12:14:00,85.3,66.2,29.67,West,270,0.4,2.7,53,0.00,,,0.00,WUHU216HW,2013-08-19 17:14:00,
2013-08-19 12:19:00,86.0,66.4,29.67,WSW,248,2.5,2.7,52,0.00,,,0.00,WUHU216HW,2013-08-19 17:19:00,
2013-08-19 12:24:00,87.1,65.7,29.67,SW,225,1.8,3.4,49,0.00,,,0.00,WUHU216HW,2013-08-19 17:24:00,
2013-08-19 12:29:00,88.2,66.7,29.67,South,180,2.5,3.4,49,0.00,,,0.00,WUHU216HW,2013-08-19 17:29:00,
2013-08-19 12:34:00,88.0,65.3,29.67,WSW,248,4.0,4.0,47,0.00,,,0.00,WUHU216HW,2013-08-19 17:34:00,
2013-08-19 12:39:00,87.8,65.1,29.66,South,180,1.6,4.0,47,0.00,,,0.00,WUHU216HW,2013-08-19 17:39:00,
2013-08-19 12:44:00,88.6,65.1,29.66,South,180,3.4,3.4,46,0.00,,,0.00,WUHU216HW,2013-08-19 17:44:00,
2013-08-19 12:49:00,89.5,65.2,29.66,South,180,2.2,5.1,45,0.00,,,0.00,WUHU216HW,2013-08-19 17:49:00,
2013-08-19 12:54:00,89.1,66.2,29.66,SE,135,2.2,5.1,47,0.00,,,0.00,WUHU216HW,2013-08-19 17:54:00,
2013-08-19 12:59:00,88.7,65.9,29.66,South,180,0.4,3.8,47,0.00,,,0.00,WUHU216HW,2013-08-19 17:59:00,
2013-08-19 13:04:00,89.1,64.9,29.66,ESE,113,3.4,3.8,45,0.00,,,0.00,WUHU216HW,2013-08-19 18:04:00,
2013-08-19 13:09:00,89.8,64.2,29.66,SW,225,1.3,3.6,43,0.00,,,0.00,WUHU216HW,2013-08-19 18:09:00,
2013-08-19 13:14:00,90.5,64.2,29.66,NW,315,1.1,3.4,42,0.00,,,0.00,WUHU216HW,2013-08-19 18:14:00,
2013-08-19 13:19:00,90.4,65.3,29.66,SSE,158,2.7,3.6,44,0.00,,,0.00,WUHU216HW,2013-08-19 18:19:00,
2013-08-19 13:24:00,90.0,64.4,29.65,SE,135,4.0,4.0,43,0.00,,,0.00,WUHU216HW,2013-08-19 18:24:00,
2013-08-19 13:29:00,89.5,64.5,29.65,ESE,113,1.8,4.0,44,0.00,,,0.00,WUHU216HW,2013-08-19 18:29:00,
2013-08-19 13:34:00,90.5,64.9,29.65,South,180,2.9,4.7,43,0.00,,,0.00,WUHU216HW,2013-08-19 18:34:00,
2013-08-19 13:39:00,90.4,64.7,29.65,South,180,2.0,4.7,43,0.00,,,0.00,WUHU216HW,2013-08-19 18:39:00,
2013-08-19 13:44:00,90.0,64.4,29.65,SE,135,2.5,3.8,43,0.00,,,0.00,WUHU216HW,2013-08-19 18:44:00,
2013-08-19 13:49:00,89.6,64.7,29.65,SE,135,2.7,3.6,44,0.00,,,0.00,WUHU216HW,2013-08-19 18:49:00,
2013-08-19 13:54:00,89.3,64.4,29.65,WSW,248,2.5,6.3,44,0.00,,,0.00,WUHU216HW,2013-08-19 18:54:00,
2013-08-19 13:59:00,88.6,63.8,29.65,SW,225,1.1,6.3,44,0.00,,,0.00,WUHU216HW,2013-08-19 18:59:00,
2013-08-19 14:04:00,89.6,64.1,29.65,SSE,158,0.7,3.8,43,0.00,,,0.00,WUHU216HW,2013-08-19 19:04:00,
2013-08-19 14:09:00,90.7,64.4,29.65,SSW,203,2.0,3.1,42,0.00,,,0.00,WUHU216HW,2013-08-19 19:09:00,
2013-08-19 14:14:00,91.3,64.9,29.65,South,180,3.1,3.1,42,0.00,,,0.00,WUHU216HW,2013-08-19 19:14:00,
2013-08-19 14:19:00,92.5,64.7,29.65,WNW,293,3.1,4.0,40,0.00,,,0.00,WUHU216HW,2013-08-19 19:19:00,
2013-08-19 14:24:00,92.3,64.5,29.65,SW,225,3.1,4.5,40,0.00,,,0.00,WUHU216HW,2013-08-19 19:24:00,
2013-08-19 14:29:00,91.3,64.2,29.64,South,180,2.0,4.5,41,0.00,,,0.00,WUHU216HW,2013-08-19 19:29:00,
2013-08-19 14:34:00,91.1,64.1,29.64,SE,135,1.8,3.6,41,0.00,,,0.00,WUHU216HW,2013-08-19 19:34:00,
2013-08-19 14:39:00,90.7,64.4,29.64,SSE,158,1.6,3.6,42,0.00,,,0.00,WUHU216HW,2013-08-19 19:39:00,
2013-08-19 14:44:00,90.2,64.5,29.64,SE,135,1.8,4.0,43,0.00,,,0.00,WUHU216HW,2013-08-19 19:44:00,
2013-08-19 14:49:00,89.8,64.2,29.64,South,180,2.5,4.0,43,0.00,,,0.00,WUHU216HW,2013-08-19 19:49:00,
2013-08-19 14:54:00,89.3,64.4,29.64,SW,225,3.6,3.6,44,0.00,,,0.00,WUHU216HW,2013-08-19 19:54:00,
2013-08-19 14:59:00,89.6,64.7,29.64,SSW,203,5.6,5.6,44,0.00,,,0.00,WUHU216HW,2013-08-19 19:59:00,
2013-08-19 15:04:00,90.9,64.5,29.64,ESE,113,1.8,5.6,42,0.00,,,0.00,WUHU216HW,2013-08-19 20:04:00,
2013-08-19 15:09:00,91.3,64.2,29.63,South,180,2.0,4.7,41,0.00,,,0.00,WUHU216HW,2013-08-19 20:09:00,
2013-08-19 15:14:00,90.5,64.9,29.63,WNW,293,1.8,3.6,43,0.00,,,0.00,WUHU216HW,2013-08-19 20:14:00,
2013-08-19 15:19:00,90.7,65.0,29.63,WSW,248,2.2,3.4,43,0.00,,,0.00,WUHU216HW,2013-08-19 20:19:00,
2013-08-19 15:24:00,91.4,64.4,29.63,SSW,203,1.1,3.4,41,0.00,,,0.00,WUHU216HW,2013-08-19 20:24:00,
2013-08-19 15:25:00,91.6,64.5,29.63,South,180,2.5,2.5,41,0.00,,,0.00,WUHU216HW,2013-08-19 20:25:00,
2013-08-19 15:29:00,91.6,64.5,29.63,South,180,2.5,2.5,41,0.00,,,0.00,WUHU216HW,2013-08-19 20:29:00,
2013-08-19 15:34:00,91.6,64.5,29.63,South,180,2.5,2.5,41,0.00,,,0.00,WUHU216HW,2013-08-19 20:34:00,
2013-08-19 15:56:00,92.2,63.5,29.62,SW,225,1.8,1.8,39,0.00,,,0.00,WUHU216HW,2013-08-19 20:56:00,
2013-08-19 16:01:00,92.0,64.2,29.62,SSE,158,0.9,2.2,40,0.00,,,0.00,WUHU216HW,2013-08-19 21:01:00,
2013-08-19 16:06:00,92.5,64.7,29.62,South,180,1.8,4.0,40,0.00,,,0.00,WUHU216HW,2013-08-19 21:06:00,
2013-08-19 16:11:00,92.2,65.0,29.62,South,180,4.0,4.0,41,0.00,,,0.00,WUHU216HW,2013-08-19 21:11:00,
2013-08-19 16:16:00,91.6,65.2,29.62,SW,225,1.6,4.0,42,0.00,,,0.00,WUHU216HW,2013-08-19 21:16:00,
2013-08-19 16:21:00,91.1,64.7,29.61,South,180,2.0,4.0,42,0.00,,,0.00,WUHU216HW,2013-08-19 21:21:00,
2013-08-19 16:26:00,91.1,64.7,29.61,SSE,158,3.4,4.0,42,0.00,,,0.00,WUHU216HW,2013-08-19 21:26:00,
2013-08-19 16:31:00,90.7,65.0,29.61,SSE,158,1.6,4.3,43,0.00,,,0.00,WUHU216HW,2013-08-19 21:31:00,
2013-08-19 16:36:00,91.3,64.9,29.61,SSE,158,1.8,4.3,42,0.00,,,0.00,WUHU216HW,2013-08-19 21:36:00,
2013-08-19 16:41:00,91.8,65.3,29.61,SSE,158,2.7,3.8,42,0.00,,,0.00,WUHU216HW,2013-08-19 21:41:00,
2013-08-19 16:46:00,91.1,65.3,29.61,SW,225,1.6,3.8,43,0.00,,,0.00,WUHU216HW,2013-08-19 21:46:00,
2013-08-19 16:51:00,90.4,64.7,29.61,WSW,248,3.1,3.4,43,0.00,,,0.00,WUHU216HW,2013-08-19 21:51:00,
2013-08-19 16:56:00,90.7,64.4,29.61,West,270,2.5,4.0,42,0.00,,,0.00,WUHU216HW,2013-08-19 21:56:00,
2013-08-19 17:01:00,90.4,64.7,29.61,NNE,23,0.7,4.0,43,0.00,,,0.00,WUHU216HW,2013-08-19 22:01:00,
2013-08-19 17:06:00,91.1,65.3,29.61,South,180,2.5,2.5,43,0.00,,,0.00,WUHU216HW,2013-08-19 22:06:00,
2013-08-19 17:11:00,91.1,65.3,29.61,SW,225,1.1,5.4,43,0.00,,,0.00,WUHU216HW,2013-08-19 22:11:00,
2013-08-19 17:16:00,90.7,65.0,29.61,SSE,158,1.6,5.4,43,0.00,,,0.00,WUHU216HW,2013-08-19 22:16:00,
2013-08-19 17:21:00,89.5,64.5,29.61,SW,225,0.4,2.5,44,0.00,,,0.00,WUHU216HW,2013-08-19 22:21:00,
2013-08-19 17:26:00,89.5,64.5,29.61,South,180,0.7,2.5,44,0.00,,,0.00,WUHU216HW,2013-08-19 22:26:00,
2013-08-19 17:31:00,89.3,65.1,29.61,South,180,0.9,1.8,45,0.00,,,0.00,WUHU216HW,2013-08-19 22:31:00,
2013-08-19 17:36:00,88.9,64.7,29.61,SSE,158,1.1,2.7,45,0.00,,,0.00,WUHU216HW,2013-08-19 22:36:00,
2013-08-19 17:41:00,88.6,65.1,29.60,SE,135,1.1,2.7,46,0.00,,,0.00,WUHU216HW,2013-08-19 22:41:00,
2013-08-19 17:46:00,88.0,64.6,29.60,ESE,113,1.6,1.8,46,0.00,,,0.00,WUHU216HW,2013-08-19 22:46:00,
2013-08-19 17:51:00,88.7,65.9,29.61,ESE,113,0.7,2.5,47,0.00,,,0.00,WUHU216HW,2013-08-19 22:51:00,
2013-08-19 17:56:00,89.5,65.8,29.60,SSW,203,0.7,2.9,46,0.00,,,0.00,WUHU216HW,2013-08-19 22:56:00,
2013-08-19 18:01:00,90.2,65.8,29.60,SSE,158,3.4,3.4,45,0.00,,,0.00,WUHU216HW,2013-08-19 23:01:00,
2013-08-19 18:06:00,90.0,66.3,29.60,SE,135,0.7,3.4,46,0.00,,,0.00,WUHU216HW,2013-08-19 23:06:00,
2013-08-19 18:11:00,89.3,65.7,29.60,South,180,2.0,2.0,46,0.00,,,0.00,WUHU216HW,2013-08-19 23:11:00,
2013-08-19 18:16:00,88.9,66.0,29.60,SSE,158,1.8,2.0,47,0.00,,,0.00,WUHU216HW,2013-08-19 23:16:00,
2013-08-19 18:21:00,88.6,65.1,29.60,SSE,158,2.0,2.5,46,0.00,,,0.00,WUHU216HW,2013-08-19 23:21:00,
2013-08-19 18:26:00,88.6,65.7,29.60,WSW,248,1.1,2.7,47,0.00,,,0.00,WUHU216HW,2013-08-19 23:26:00,
2013-08-19 18:31:00,88.4,65.5,29.60,SE,135,1.3,2.7,47,0.00,,,0.00,WUHU216HW,2013-08-19 23:31:00,
2013-08-19 18:36:00,87.7,66.2,29.60,South,180,2.5,5.1,49,0.00,,,0.00,WUHU216HW,2013-08-19 23:36:00,
2013-08-19 18:41:00,87.8,66.3,29.60,South,180,2.5,5.1,49,0.00,,,0.00,WUHU216HW,2013-08-19 23:41:00,
2013-08-19 18:46:00,87.8,65.7,29.60,WSW,248,1.1,2.5,48,0.00,,,0.00,WUHU216HW,2013-08-19 23:46:00,
2013-08-19 18:51:00,87.5,65.3,29.60,SSE,158,1.3,1.8,48,0.00,,,0.00,WUHU216HW,2013-08-19 23:51:00,
2013-08-19 18:56:00,86.6,65.8,29.60,South,180,2.5,2.5,50,0.00,,,0.00,WUHU216HW,2013-08-19 23:56:00,
2013-08-19 19:01:00,86.9,66.2,29.60,South,180,1.8,4.3,50,0.00,,,0.00,WUHU216HW,2013-08-20 00:01:00,
2013-08-19 19:06:00,86.9,66.2,29.60,East,90,0.9,4.3,50,0.00,,,0.00,WUHU216HW,2013-08-20 00:06:00,
2013-08-19 19:11:00,86.4,65.7,29.60,South,180,1.6,1.6,50,0.00,,,0.00,WUHU216HW,2013-08-20 00:11:00,
2013-08-19 19:16:00,85.5,65.9,29.60,SSE,158,1.1,3.4,52,0.00,,,0.00,WUHU216HW,2013-08-20 00:16:00,
2013-08-19 19:21:00,85.5,65.9,29.60,SW,225,1.1,3.4,52,0.00,,,0.00,WUHU216HW,2013-08-20 00:21:00,
2013-08-19 19:26:00,85.9,66.3,29.61,SSE,158,2.5,3.1,52,0.00,,,0.00,WUHU216HW,2013-08-20 00:26:00,
2013-08-19 19:31:00,85.3,65.3,29.61,South,180,2.0,3.1,51,0.00,,,0.00,WUHU216HW,2013-08-20 00:31:00,
2013-08-19 19:36:00,84.6,66.2,29.60,South,180,2.0,2.0,54,0.00,,,0.00,WUHU216HW,2013-08-20 00:36:00,
2013-08-19 19:40:00,84.6,66.7,29.60,SE,135,0.2,2.0,55,0.00,,,0.00,WUHU216HW,2013-08-20 00:40:00,
2013-08-19 19:46:00,84.2,65.8,29.60,SSE,158,0.4,0.9,54,0.00,,,0.00,WUHU216HW,2013-08-20 00:46:00,
2013-08-19 19:51:00,83.7,64.7,29.60,SSE,158,0.0,0.9,53,0.00,,,0.00,WUHU216HW,2013-08-20 00:51:00,
2013-08-19 19:56:00,83.3,66.0,29.60,SE,135,0.7,0.9,56,0.00,,,0.00,WUHU216HW,2013-08-20 00:56:00,
2013-08-19 20:01:00,83.2,66.3,29.60,SE,135,0.2,0.7,57,0.00,,,0.00,WUHU216HW,2013-08-20 01:01:00,
2013-08-19 20:06:00,83.2,65.3,29.60,SE,135,0.0,0.7,55,0.00,,,0.00,WUHU216HW,2013-08-20 01:06:00,
2013-08-19 20:11:00,82.8,64.9,29.60,SE,135,0.0,0.2,55,0.00,,,0.00,WUHU216HW,2013-08-20 01:11:00,
2013-08-19 20:16:00,82.1,65.8,29.60,South,180,0.0,0.4,58,0.00,,,0.00,WUHU216HW,2013-08-20 01:16:00,
2013-08-19 20:21:00,82.4,66.1,29.60,SSE,158,0.0,0.4,58,0.00,,,0.00,WUHU216HW,2013-08-20 01:21:00,
2013-08-19 20:26:00,82.6,65.8,29.61,South,180,0.0,0.2,57,0.00,,,0.00,WUHU216HW,2013-08-20 01:26:00,
2013-08-19 20:30:00,82.1,64.7,29.61,SSE,158,0.2,0.2,56,0.00,,,0.00,WUHU216HW,2013-08-20 01:30:00,
2013-08-19 20:35:00,81.4,66.2,29.61,SSE,158,0.0,0.2,60,0.00,,,0.00,WUHU216HW,2013-08-20 01:35:00,
2013-08-19 20:41:00,81.7,66.5,29.61,SSE,158,0.0,0.0,60,0.00,,,0.00,WUHU216HW,2013-08-20 01:41:00,
2013-08-19 20:46:00,81.7,65.4,29.61,SE,135,0.0,0.0,58,0.00,,,0.00,WUHU216HW,2013-08-20 01:46:00,
2013-08-19 20:51:00,81.2,65.0,29.61,SSE,158,0.0,1.1,58,0.00,,,0.00,WUHU216HW,2013-08-20 01:51:00,
2013-08-19 20:55:00,80.5,66.2,29.61,SSE,158,0.0,1.1,62,0.00,,,0.00,WUHU216HW,2013-08-20 01:55:00,
2013-08-19 21:01:00,80.6,66.4,29.61,SSE,158,0.0,0.0,62,0.00,,,0.00,WUHU216HW,2013-08-20 02:01:00,
2013-08-19 21:06:00,80.8,66.2,29.61,SSE,158,0.0,0.0,61,0.00,,,0.00,WUHU216HW,2013-08-20 02:06:00,
2013-08-19 21:10:00,80.5,64.8,29.61,SSE,158,0.0,0.0,59,0.00,,,0.00,WUHU216HW,2013-08-20 02:10:00,
2013-08-19 21:15:00,79.9,64.4,29.61,SSE,158,0.0,0.0,59,0.00,,,0.00,WUHU216HW,2013-08-20 02:15:00,
2013-08-19 21:20:00,79.4,66.2,29.61,SSE,158,0.0,0.0,64,0.00,,,0.00,WUHU216HW,2013-08-20 02:20:00,
2013-08-19 21:25:00,80.1,66.3,29.62,SSE,158,0.0,0.0,63,0.00,,,0.00,WUHU216HW,2013-08-20 02:25:00,
2013-08-19 21:30:00,80.1,65.5,29.62,SSE,158,0.0,0.0,61,0.00,,,0.00,WUHU216HW,2013-08-20 02:30:00,
2013-08-19 21:35:00,79.6,65.0,29.62,SE,135,0.2,0.9,61,0.00,,,0.00,WUHU216HW,2013-08-20 02:35:00,
2013-08-19 21:40:00,78.8,64.4,29.62,SE,135,0.0,0.9,61,0.00,,,0.00,WUHU216HW,2013-08-20 02:40:00,
2013-08-19 21:45:00,78.1,64.1,29.62,SE,135,0.0,0.0,62,0.00,,,0.00,WUHU216HW,2013-08-20 02:45:00,
2013-08-19 21:50:00,77.8,65.9,29.62,SE,135,0.0,0.0,67,0.00,,,0.00,WUHU216HW,2013-08-20 02:50:00,
2013-08-19 21:55:00,78.3,66.0,29.62,SE,135,0.0,0.0,66,0.00,,,0.00,WUHU216HW,2013-08-20 02:55:00,
2013-08-19 22:00:00,78.5,65.3,29.62,SE,135,0.0,0.0,64,0.00,,,0.00,WUHU216HW,2013-08-20 03:00:00,
2013-08-19 22:05:00,78.1,64.5,29.62,SE,135,0.0,0.0,63,0.00,,,0.00,WUHU216HW,2013-08-20 03:05:00,
2013-08-19 22:10:00,77.4,64.3,29.62,SE,135,0.0,0.0,64,0.00,,,0.00,WUHU216HW,2013-08-20 03:10:00,
2013-08-19 22:15:00,76.7,63.5,29.62,SE,135,0.0,0.0,64,0.00,,,0.00,WUHU216HW,2013-08-20 03:15:00,
2013-08-19 22:20:00,76.3,63.6,29.63,SE,135,0.0,0.0,65,0.00,,,0.00,WUHU216HW,2013-08-20 03:20:00,
2013-08-19 22:25:00,75.8,63.6,29.63,SE,135,0.0,0.0,66,0.00,,,0.00,WUHU216HW,2013-08-20 03:25:00,
2013-08-19 22:30:00,75.4,63.3,29.63,SE,135,0.0,0.0,66,0.00,,,0.00,WUHU216HW,2013-08-20 03:30:00,
2013-08-19 22:35:00,75.2,63.6,29.63,SE,135,0.0,0.0,67,0.00,,,0.00,WUHU216HW,2013-08-20 03:35:00,
2013-08-19 22:40:00,76.1,66.1,29.62,SE,135,0.0,0.0,71,0.00,,,0.00,WUHU216HW,2013-08-20 03:40:00,
2013-08-19 22:45:00,76.5,66.1,29.63,SE,135,0.0,0.0,70,0.00,,,0.00,WUHU216HW,2013-08-20 03:45:00,
2013-08-19 22:50:00,76.5,66.1,29.63,SE,135,0.0,0.0,70,0.00,,,0.00,WUHU216HW,2013-08-20 03:50:00,
2013-08-19 23:00:00,75.2,63.6,29.62,SE,135,0.0,0.0,67,0.00,,,0.00,WUHU216HW,2013-08-20 04:00:00,
2013-08-19 23:01:00,75.2,63.9,29.62,SE,135,0.0,0.0,68,0.00,,,0.00,WUHU216HW,2013-08-20 04:01:00,
2013-08-19 23:02:00,75.1,63.8,29.62,SE,135,0.0,0.0,68,0.00,,,0.00,WUHU216HW,2013-08-20 04:02:00,
2013-08-19 23:07:00,74.7,63.5,29.62,SE,135,0.0,0.0,68,0.00,,,0.00,WUHU216HW,2013-08-20 04:07:00,
2013-08-19 23:12:00,74.2,63.8,29.62,ESE,113,0.0,0.9,70,0.00,,,0.00,WUHU216HW,2013-08-20 04:12:00,
2013-08-19 23:17:00,73.8,63.6,29.62,ESE,113,0.2,0.9,70,0.00,,,0.00,WUHU216HW,2013-08-20 04:17:00,
2013-08-19 23:22:00,73.4,63.5,29.62,ESE,113,0.4,0.7,71,0.00,,,0.00,WUHU216HW,2013-08-20 04:22:00,
2013-08-19 23:27:00,73.1,63.2,29.62,ESE,113,0.0,0.7,71,0.00,,,0.00,WUHU216HW,2013-08-20 04:27:00,
2013-08-19 23:32:00,73.1,63.2,29.62,SE,135,1.1,1.1,71,0.00,,,0.00,WUHU216HW,2013-08-20 04:32:00,
2013-08-19 23:37:00,72.9,63.4,29.62,SE,135,0.0,1.1,72,0.00,,,0.00,WUHU216HW,2013-08-20 04:37:00,
2013-08-19 23:42:00,72.7,63.2,29.62,SE,135,1.1,1.1,72,0.00,,,0.00,WUHU216HW,2013-08-20 04:42:00,
2013-08-19 23:47:00,72.5,63.0,29.63,SE,135,0.7,1.3,72,0.00,,,0.00,WUHU216HW,2013-08-20 04:47:00,
2013-08-19 23:52:00,72.4,63.3,29.63,ESE,113,0.0,1.3,73,0.00,,,0.00,WUHU216HW,2013-08-20 04:52:00,
2013-08-19 23:57:00,72.2,63.1,29.63,SE,135,0.0,0.4,73,0.00,,,0.00,WUHU216HW,2013-08-20 04:57:00,